IT9DBI-3 Weather Reports


time (UTC)temp
F
wind
direction
speed
knots
gust
knots
rain 1hr
in
rain 24hr
in
rain mn
in
humidity
%
barometer
mb
20260507103123 77 0.0 0.0 0.00 0.00 0.00 22 1009.0
20260507101122 76 0.0 0.0 0.00 0.00 0.00 22 1009.0
20260507095121 75 0.0 0.0 0.00 0.00 0.00 23 1009.5
20260507093119 75 0.0 0.0 0.00 0.00 0.00 24 1009.7
20260507091119 74 0.0 0.0 0.00 0.00 0.00 25 1009.7
20260507085116 74 0.0 0.0 0.00 0.00 0.00 25 1009.7
20260507083115 73 0.0 0.0 0.00 0.00 0.00 28 1010.0
20260507081113 73 0.0 0.0 0.00 0.00 0.00 29 1010.0
20260507075112 72 0.0 0.0 0.00 0.00 0.00 32 1010.4
20260507073111 70 0.0 0.0 0.00 0.00 0.00 33 1010.8
20260507071109 69 0.0 0.0 0.00 0.00 0.00 35 1011.1
20260507065108 68 0.0 0.0 0.00 0.00 0.00 38 1011.1
20260507063107 67 0.0 0.0 0.00 0.00 0.00 46 1011.4
20260507061105 66 0.0 0.0 0.00 0.00 0.00 51 1011.4
20260507055059 65 0.0 0.0 0.00 0.00 0.00 53 1011.6
20260507053057 64 0.0 0.0 0.00 0.00 0.00 49 1011.5
20260507051056 62 0.0 0.0 0.00 0.00 0.00 50 1011.5
20260507045054 62 0.0 0.0 0.00 0.00 0.00 43 1011.5
20260507043053 61 0.0 0.0 0.00 0.00 0.00 48 1011.6
20260507041052 61 0.0 0.0 0.00 0.00 0.00 45 1011.6
20260507035051 61 0.0 0.0 0.00 0.00 0.00 49 1011.8
20260507033049 62 0.0 0.0 0.00 0.00 0.00 45 1011.5
20260507031048 62 0.0 0.0 0.00 0.00 0.00 47 1011.7
20260507025047 62 0.0 0.0 0.00 0.00 0.00 47 1011.6
20260507023045 64 0.0 0.0 0.00 0.00 0.00 44 1011.6
20260507021044 66 0.0 0.0 0.00 0.00 0.00 32 1011.5
20260507015043 65 0.0 0.0 0.00 0.00 0.00 41 1011.6
20260507013041 66 0.0 0.0 0.00 0.00 0.00 36 1011.2
20260507011040 64 0.0 0.0 0.00 0.00 0.00 45 1011.7
20260507005039 64 0.0 0.0 0.00 0.00 0.00 45 1011.2
20260507003037 67 0.0 0.0 0.00 0.00 0.00 36 1011.4
20260507001036 67 0.0 0.0 0.00 0.00 0.00 35 1011.6
20260506235035 68 0.0 0.0 0.00 0.00 0.00 33 1011.6
20260506233033 68 0.0 0.0 0.00 0.00 0.00 32 1011.6
20260506231032 68 0.0 0.0 0.00 0.00 0.00 31 1011.8
20260506225031 68 0.0 0.0 0.00 0.00 0.00 30 1011.8
20260506223029 69 0.0 0.0 0.00 0.00 0.00 28 1011.7
20260506221027 70 0.0 0.0 0.00 0.00 0.00 25 1011.8
20260506215023 70 0.0 0.0 0.00 0.00 0.00 23 1011.0
20260506213021 69 0.0 0.0 0.00 0.00 0.00 25 1011.1
20260506211020 66 0.0 0.0 0.00 0.00 0.00 33 1010.4
20260506205021 65 0.0 0.0 0.00 0.00 0.00 38 1011.1
20260506203017 66 0.0 0.0 0.00 0.00 0.00 35 1011.2
20260506201015 67 0.0 0.0 0.00 0.00 0.00 28 1011.6
20260506195013 68 0.0 0.0 0.00 0.00 0.00 24 1012.0
20260506193012 68 0.0 0.0 0.00 0.00 0.00 25 1011.9
20260506191010 66 0.0 0.0 0.00 0.00 0.00 51 1012.0
20260506185009 66 0.0 0.0 0.00 0.00 0.00 53 1012.2
20260506183007 66 0.0 0.0 0.00 0.00 0.00 60 1012.2
20260506181003 67 0.0 0.0 0.00 0.00 0.00 57 1012.2
20260506175002 68 0.0 0.0 0.00 0.00 0.00 57 1012.0
20260506173000 69 0.0 0.0 0.00 0.00 0.00 55 1011.6
20260506170956 70 0.0 0.0 0.00 0.00 0.00 55 1011.6
20260506164954 71 0.0 0.0 0.00 0.00 0.00 57 1011.9
20260506162953 71 0.0 0.0 0.00 0.00 0.00 61 1011.9
20260506160952 72 0.0 0.0 0.00 0.00 0.00 44 1011.9
20260506154950 76 0.0 0.0 0.00 0.00 0.00 28 1011.8
20260506152949 75 0.0 0.0 0.00 0.00 0.00 27 1011.6
20260506150948 76 0.0 0.0 0.00 0.00 0.00 26 1011.7
20260506144946 77 0.0 0.0 0.00 0.00 0.00 30 1011.5
20260506142945 81 0.0 0.0 0.00 0.00 0.00 22 1011.4
20260506140944 81 0.0 0.0 0.00 0.00 0.00 26 1011.1
20260506134942 85 0.0 0.0 0.00 0.00 0.00 23 1011.1
20260506132941 82 0.0 0.0 0.00 0.00 0.00 25 1011.2
20260506130940 86 0.0 0.0 0.00 0.00 0.00 26 1011.1
20260506124938 83 0.0 0.0 0.00 0.00 0.00 28 1011.6
20260506122937 80 0.0 0.0 0.00 0.00 0.00 32 1011.8
20260506120936 81 0.0 0.0 0.00 0.00 0.00 36 1011.6
20260506114935 76 0.0 0.0 0.00 0.00 0.00 39 1012.1
20260506112933 79 0.0 0.0 0.00 0.00 0.00 41 1012.1
20260506110932 76 0.0 0.0 0.00 0.00 0.00 44 1012.6
20260506104931 79 0.0 0.0 0.00 0.00 0.00 41 1012.6